[[{"header":{"parameterUnit":"m.s-1","parameterCategory":1,"la1":30.2991,"la2":30.254,"lo1":-89.0895,"lo2":-89.0444,"dy":0.0017,"dx":0.0017,"nx":28,"ny":28,"refTime":"2024-02-07T09:00:00:Z","depth":0,"parameterNumber":2,"parameterNumberName":"U-component_of_WINDS"},"data":[0,0,0,0,0,0,0,0,0,0,0,0,0,0,0,0,0,0,0,0,0,0,0,0,0,0,0,0,0,0,0,0,0,0,0,0,0,0,0,0,0,0,0,0,0,0,0,0,0,0,0,0,0,0,0,0,0,0,-4.0302,-4.0302,0,-4.0373,-4.0374,-4.0374,-4.0309,-4.0306,-4.0303,-4.0301,-4.0376,-4.0381,-4.0385,0,0,0,0,0,0,0,0,0,0,0,0,0,-4.0113,-4.0117,-4.0301,-4.0302,-4.0303,-4.0373,-4.0374,-4.0375,-4.0309,-4.0306,-4.0303,-4.03,-4.0375,-4.038,-4.0385,0,0,0,0,0,0,0,0,0,0,0,0,0,-4.0191,-4.0118,-4.0301,-4.0279,-4.0278,-4.0372,-4.0374,-4.0375,-4.031,-4.0306,-4.0302,-4.0298,-4.0373,-4.038,-4.0386,-4.0508,0,0,-4.0407,-4.041,0,0,0,0,0,0,0,0,-4.0186,-4.0198,-4.0281,-4.0281,-4.0279,-4.0328,-4.0335,-4.0419,-4.0311,-4.0298,-4.0301,-4.0296,-4.0364,-4.0371,-4.0393,-4.0511,-4.0514,-4.0407,-4.0411,-4.0414,-4.0416,0,0,0,0,0,0,0,-4.0181,-4.0194,-4.033,-4.0283,-4.0281,-4.0267,-4.0273,-4.0351,-4.0352,-4.0299,-4.0294,-4.0303,-4.0362,-4.0387,-4.0394,-4.0515,-4.0407,-4.0413,-4.0417,-4.042,-4.0739,-4.0743,0,0,0,0,0,0,-4.0178,-4.019,-4.0327,-4.0332,-4.0222,-4.0273,-4.0281,-4.0316,-4.0351,-4.0353,-4.0306,-4.03,-4.0377,-4.0386,-4.0397,-4.0542,-4.0414,-4.0421,-4.0424,-4.0735,-4.074,-4.0745,0,0,0,0,0,0,-4.0174,-4.019,-4.0325,-4.026,-4.0276,-4.0281,-4.0321,-4.032,-4.0344,-4.0357,-4.0357,-4.0331,-4.0374,-4.0387,-4.0481,-4.0543,-4.0424,-4.043,-4.073,-4.0737,-4.0743,-4.0833,0,0,0,0,0,0,-4.0169,-4.0189,-4.0234,-4.0261,-4.0279,-4.0406,-4.0325,-4.0324,-4.0355,-4.0347,-4.038,-4.0382,-4.0372,-4.0471,-4.0488,-4.055,-4.0435,-4.0724,-4.0733,-4.0741,-4.0824,-4.0841,-4.0856,0,0,0,0,0,-4.0162,-4.0257,-4.0237,-4.0254,-4.0336,-4.041,-4.0421,-4.0407,-4.0361,-4.0407,-4.0416,-4.0381,-4.0534,-4.0481,-4.0499,-4.0565,-4.072,-4.073,-4.074,-4.0817,-4.0838,-4.0856,0,0,0,0,0,0,-4.0237,-4.026,-4.0238,-4.0344,-4.0376,-4.0399,-4.0456,-4.043,-4.0476,-4.0466,-4.0449,-4.0457,-4.0556,-4.057,-4.051,-4.0686,-4.062,-4.0634,-4.0672,-4.0693,-4.0708,-4.0702,-4.0441,0,0,0,0,0,-4.0266,-4.0323,-4.0341,-4.0433,-4.045,-4.0451,-4.0483,-4.047,-4.0502,-4.0515,-4.0531,-4.0564,-4.062,-4.0658,-4.071,-4.0827,-4.0833,-4.0881,-4.0897,-4.0911,-4.0923,-4.0987,-4.1009,-4.0778,-4.0778,-4.0778,0,0,-4.0326,-4.0346,-4.0383,-4.0448,-4.0471,-4.0533,-4.0462,-4.0529,-4.0575,-4.0526,-4.0614,-4.0628,-4.0665,-4.0771,-4.0818,-4.0786,-4.0989,-4.0924,-4.0934,-4.0939,-4.1,-4.1022,-4.1041,-4.0785,-4.0783,-4.0782,0,0,-4.0466,-4.0487,-4.0566,-4.0591,-4.0627,-4.0627,-4.0647,-4.0675,-4.0682,-4.0771,-4.0736,-4.0791,-4.0887,-4.0915,-4.0942,-4.1098,-4.1067,-4.1116,-4.1199,-4.1263,-4.1281,-4.1297,-4.1353,-4.1373,-4.1128,-4.1128,-4.1128,0,-4.0536,-4.0625,-4.061,-4.0681,-4.0711,-4.067,-4.0751,-4.0777,-4.0829,-4.0851,-4.0814,-4.0936,-4.0958,-4.1071,-4.1109,-4.1132,-4.1155,-4.111,-4.1279,-4.1295,-4.131,-4.1363,-4.1384,-4.1133,-4.1133,-4.1132,-4.1132,0,-4.071,-4.0774,-4.0834,-4.0884,-4.0922,-4.0998,-4.0996,-4.1036,-4.1022,-4.1027,-4.112,-4.1145,-4.1202,-4.1229,-4.1214,-4.1341,-4.1319,-4.1282,-4.1215,-4.1338,-4.1387,-4.1407,-4.1141,-4.1139,-4.1138,-4.1136,0,0,-4.0896,-4.094,-4.0962,-4.0985,-4.1024,-4.1073,-4.1149,-4.1204,-4.124,-4.1278,-4.1341,-4.1426,-4.1392,-4.1423,-4.1412,-4.1468,-4.159,-4.1423,-4.1424,-4.1453,-4.1732,-4.1759,-4.1783,-4.1572,-4.1575,-4.1578,-4.1729,0,-4.1037,-4.1166,-4.1157,-4.1279,-4.1338,-4.1302,-4.1368,-4.14,-4.1408,-4.146,-4.147,-4.153,-4.148,-4.1499,-4.1552,-4.1564,-4.1646,-4.1553,-4.1631,-4.1634,-4.1621,-4.1808,-4.1837,-4.1977,-4.1748,-4.1751,-4.1754,0,-4.1218,-4.1263,-4.1392,-4.1423,-4.1448,-4.1507,-4.1558,-4.1609,-4.1646,-4.1648,-4.1684,-4.1665,-4.1743,-4.1676,-4.1784,-4.1722,-4.1754,-4.1765,-4.177,-4.1775,-4.17,-4.1818,-4.2022,-4.2042,-4.1784,-4.1781,-4.1779,0,-4.1341,-4.1434,-4.1523,-4.1544,-4.1583,-4.1626,-4.1645,-4.1677,-4.1712,-4.1759,-4.1781,-4.1837,-4.1867,-4.1911,-4.1908,-4.1859,-4.2018,-4.1951,-4.2023,-4.2023,-4.2056,-4.2053,-4.2266,-4.2079,-4.2078,-4.2078,-4.2078,0,-4.1499,-4.1578,-4.1578,-4.1633,-4.1723,-4.1712,-4.1802,-4.1816,-4.1846,-4.1904,-4.1877,-4.1933,-4.1926,-4.1983,-4.1982,-4.2072,-4.2086,-4.2091,-4.2089,-4.2092,-4.2092,-4.2111,-4.2101,-4.2084,-4.2082,-4.2081,-4.208,0,-4.1649,-4.1652,-4.1747,-4.1777,-4.1787,-4.1852,-4.1878,-4.1931,-4.1938,-4.2012,-4.2029,-4.2041,-4.2106,-4.2109,-4.2184,-4.2183,-4.2293,-4.2282,-4.2281,-4.2278,-4.2349,-4.2343,-4.2581,-4.2612,-4.2406,-4.2408,-4.2409,0,-4.1748,-4.1809,-4.1847,-4.1884,-4.1905,-4.1965,-4.2001,-4.1994,-4.2033,-4.2082,-4.2129,-4.2192,-4.2242,-4.2349,-4.2365,-4.2423,-4.2412,-4.2492,-4.242,-4.2422,-4.2413,-4.2408,-4.2415,-4.2505,-4.2507,-4.2509,-4.2511,0,-4.1925,-4.1924,-4.1976,-4.2031,-4.2075,-4.2118,-4.2157,-4.2189,-4.2188,-4.2234,-4.23,-4.2339,-4.2417,-4.248,-4.2538,-4.2558,-4.2535,-4.2534,-4.2553,-4.2556,-4.2553,-4.2555,-4.2317,-4.2527,-4.2526,-4.2524,-4.2524,-4.2523,-4.2052,-4.2105,-4.214,-4.2201,-4.223,-4.2269,-4.232,-4.2335,-4.239,-4.2452,-4.2446,-4.252,-4.2559,-4.2633,-4.2659,-4.2718,-4.2691,-4.2719,-4.2726,-4.2733,-4.2741,-4.2545,-4.2729,-4.2728,-4.2728,-4.2728,-4.2727,0,-4.2227,-4.2248,-4.2304,-4.2361,-4.2409,-4.2384,-4.2427,-4.2469,-4.2535,-4.2572,-4.2622,-4.2701,-4.2763,-4.2785,-4.2846,-4.2889,-4.2881,-4.2906,-4.2902,-4.2907,-4.2762,-4.2738,-4.2912,-4.2912,-4.2912,-4.2912,-4.2912,-4.2912,-4.2323,-4.2411,-4.2416,-4.252,-4.2541,-4.2614,-4.2641,-4.2677,-4.2707,-4.2795,-4.2846,-4.2861,-4.2893,-4.2957,-4.3014,-4.3019,-4.3042,-4.3072,-4.3073,-4.2936,-4.2917,-4.2899,-4.2877,-4.3077,-4.3078,-4.3213,-4.3214,-4.3215]},{"header":{"parameterUnit":"m.s-1","parameterCategory":1,"la1":30.2991,"la2":30.254,"lo1":-89.0895,"lo2":-89.0444,"dy":0.0017,"dx":0.0017,"nx":28,"ny":28,"refTime":"2024-02-07T09:00:00:Z","depth":0,"parameterNumber":3,"parameterNumberName":"V-component_of_WINDS"},"data":[0,0,0,0,0,0,0,0,0,0,0,0,0,0,0,0,0,0,0,0,0,0,0,0,0,0,0,0,0,0,0,0,0,0,0,0,0,0,0,0,0,0,0,0,0,0,0,0,0,0,0,0,0,0,0,0,0,0,1.7702,1.7702,0,1.7747,1.7747,1.7748,1.7828,1.7829,1.7831,1.7832,1.7874,1.7873,1.7873,0,0,0,0,0,0,0,0,0,0,0,0,0,1.7681,1.7681,1.7702,1.7702,1.7703,1.7747,1.7747,1.7748,1.7827,1.7829,1.7831,1.7833,1.7874,1.7873,1.7873,0,0,0,0,0,0,0,0,0,0,0,0,0,1.7704,1.7681,1.7701,1.7748,1.7752,1.7747,1.7747,1.7748,1.7827,1.7829,1.7832,1.7834,1.7874,1.7873,1.7873,1.7824,0,0,1.7871,1.7871,0,0,0,0,0,0,0,0,1.7703,1.7705,1.774,1.7745,1.775,1.7784,1.7755,1.7773,1.7826,1.7798,1.7832,1.7835,1.7842,1.7844,1.7847,1.7826,1.7828,1.7871,1.7871,1.7871,1.7871,0,0,0,0,0,0,0,1.7701,1.7703,1.7719,1.7741,1.7747,1.7765,1.7771,1.7759,1.7806,1.7801,1.7807,1.7812,1.7845,1.7847,1.7849,1.7828,1.7871,1.7871,1.7871,1.787,1.777,1.7768,0,0,0,0,0,0,1.7693,1.7701,1.7718,1.7721,1.7732,1.7764,1.777,1.7771,1.7807,1.7815,1.781,1.7815,1.7847,1.7849,1.785,1.7796,1.7871,1.787,1.787,1.7773,1.777,1.7767,0,0,0,0,0,0,1.7692,1.7694,1.7716,1.7713,1.7717,1.7762,1.7761,1.777,1.7773,1.7813,1.7822,1.7804,1.7849,1.7851,1.7831,1.7799,1.787,1.787,1.7775,1.7772,1.7768,1.7687,0,0,0,0,0,0,1.7692,1.7693,1.7676,1.7712,1.7717,1.7696,1.7759,1.777,1.7773,1.7781,1.781,1.7817,1.7851,1.7831,1.783,1.78,1.7869,1.7778,1.7774,1.777,1.7693,1.7681,1.7671,0,0,0,0,0,1.769,1.765,1.7674,1.7676,1.7696,1.7694,1.7697,1.7738,1.777,1.7752,1.7778,1.7816,1.7803,1.7828,1.7828,1.7797,1.7781,1.7775,1.777,1.7698,1.7683,1.7672,0,0,0,0,0,0,1.7607,1.7655,1.7683,1.7653,1.7669,1.7708,1.7687,1.7721,1.7727,1.7734,1.7783,1.7789,1.7762,1.7777,1.7805,1.7752,1.7798,1.7792,1.7743,1.773,1.7719,1.7716,1.7869,0,0,0,0,0,1.7585,1.758,1.7623,1.7592,1.7599,1.7641,1.7642,1.7672,1.769,1.7697,1.7721,1.7736,1.7735,1.7733,1.7735,1.7696,1.7703,1.7674,1.7663,1.7654,1.7649,1.763,1.7618,1.775,1.775,1.775,0,0,1.7539,1.7565,1.7559,1.7576,1.7592,1.7585,1.7646,1.7636,1.7632,1.7695,1.7678,1.7696,1.7715,1.7686,1.7674,1.7698,1.7614,1.7648,1.764,1.7639,1.7623,1.7611,1.7599,1.7746,1.7747,1.7747,0,0,1.7453,1.7472,1.745,1.7465,1.7489,1.7518,1.7513,1.7546,1.7562,1.7546,1.7593,1.7588,1.7585,1.7598,1.7603,1.7524,1.7559,1.7523,1.7466,1.7447,1.7437,1.7428,1.74,1.7389,1.7517,1.7517,1.7517,0,1.7393,1.7386,1.7433,1.7421,1.7427,1.7486,1.7463,1.7475,1.7497,1.75,1.7527,1.7526,1.7543,1.7517,1.7498,1.7501,1.7496,1.7519,1.7435,1.7426,1.7419,1.7392,1.7381,1.7512,1.7513,1.7513,1.7514,0,1.7311,1.7306,1.7284,1.7307,1.7311,1.7293,1.7336,1.7334,1.7364,1.739,1.7373,1.7396,1.7403,1.74,1.7428,1.7378,1.7392,1.7426,1.7473,1.7401,1.7377,1.7367,1.7506,1.7507,1.7509,1.751,0,0,1.7172,1.7223,1.7214,1.7226,1.7257,1.7254,1.7238,1.7248,1.7245,1.7259,1.7247,1.7244,1.7277,1.7283,1.7314,1.7297,1.7233,1.7334,1.7335,1.7314,1.718,1.7154,1.7142,1.7257,1.7256,1.7254,1.7178,0,1.7093,1.7072,1.7114,1.7082,1.7077,1.7134,1.7121,1.7138,1.7162,1.7161,1.7187,1.7185,1.7227,1.7232,1.7218,1.7244,1.7207,1.725,1.7246,1.7245,1.7239,1.7129,1.7102,1.7029,1.7169,1.7168,1.7167,0,1.6997,1.7009,1.6976,1.7012,1.7012,1.6999,1.7012,1.701,1.7031,1.705,1.7058,1.7095,1.7082,1.7128,1.711,1.7139,1.7139,1.7152,1.715,1.7151,1.7201,1.7127,1.7007,1.6995,1.7152,1.7153,1.7154,0,1.6899,1.6906,1.6889,1.6897,1.6937,1.6927,1.6943,1.6967,1.697,1.6981,1.6983,1.6991,1.6995,1.7,1.7038,1.7068,1.7016,1.7065,1.703,1.7029,1.7016,1.7016,1.6894,1.7017,1.7017,1.7017,1.7017,0,1.6806,1.6784,1.6846,1.6834,1.6812,1.686,1.6836,1.6858,1.6878,1.6872,1.6921,1.6913,1.6964,1.6962,1.6991,1.6972,1.6974,1.6988,1.6996,1.6983,1.6981,1.6984,1.699,1.7014,1.7015,1.7016,1.7016,0,1.6693,1.6733,1.6717,1.6758,1.6767,1.6749,1.6783,1.6774,1.6802,1.6793,1.6793,1.6836,1.6836,1.6875,1.6882,1.6902,1.687,1.6888,1.6864,1.6869,1.6833,1.6835,1.6708,1.6693,1.6825,1.6823,1.6822,0,1.663,1.6615,1.6655,1.6655,1.6669,1.6668,1.6673,1.672,1.6722,1.6746,1.6734,1.6739,1.6745,1.6742,1.6773,1.6779,1.6797,1.6752,1.6798,1.6786,1.6796,1.6797,1.6795,1.6741,1.674,1.6738,1.6737,0,1.6516,1.6537,1.6542,1.6554,1.6559,1.657,1.6584,1.6581,1.6633,1.6633,1.6635,1.664,1.6649,1.6652,1.6665,1.668,1.6717,1.6723,1.6715,1.6702,1.6689,1.6696,1.6837,1.6725,1.6726,1.6727,1.6728,1.6728,1.6426,1.6416,1.6443,1.6447,1.6463,1.6476,1.647,1.6498,1.6501,1.6513,1.654,1.6538,1.656,1.658,1.6593,1.6591,1.6613,1.6602,1.6599,1.6596,1.6589,1.669,1.6593,1.6593,1.6594,1.6594,1.6594,0,1.6315,1.6335,1.6339,1.6358,1.6362,1.6398,1.6416,1.6416,1.6414,1.6432,1.6438,1.644,1.6445,1.6477,1.6484,1.6477,1.6494,1.6477,1.6478,1.6481,1.6568,1.6574,1.6463,1.6463,1.6463,1.6463,1.6463,1.6463,1.6257,1.6242,1.6266,1.6259,1.628,1.6279,1.6286,1.6298,1.6313,1.6314,1.6319,1.634,1.6364,1.6374,1.6379,1.6389,1.6389,1.6367,1.6381,1.6462,1.6475,1.6487,1.6493,1.6366,1.6366,1.6294,1.6294,1.6293]}]]